EW5545 Weather Reports


time (UTC)temp
C
wind
direction
speed
KPH
gust
KPH
rain 1hr
cm
rain 24hr
cm
rain mn
cm
humidity
%
barometer
mb
20260906052008 25 247 0.0 3.2 0.00 0.00 0.00 43 1018.1
20260906051506 24 251 0.0 4.8 0.00 0.00 0.00 43 1018.1
20260906051006 24 243 0.0 1.6 0.00 0.00 0.00 44 1018.1
20260906050505 23 243 0.0 1.6 0.00 0.00 0.00 45 1018.1
20260906050008 23 243 0.0 1.6 0.00 0.00 0.00 46 1018.2
20260906045506 23 243 0.0 1.6 0.00 0.00 0.00 45 1018.2
20260906045006 23 243 0.0 1.6 0.00 0.00 0.00 45 1018.1
20260906044505 24 243 0.0 0.0 0.00 0.00 0.00 44 1018.1
20260906044006 24 243 0.0 0.0 0.00 0.00 0.00 44 1018.1
20260906043505 24 243 0.0 0.0 0.00 0.00 0.00 44 1018.0
20260906043005 24 243 0.0 1.6 0.00 0.00 0.00 44 1017.9
20260906042506 24 243 0.0 1.6 0.00 0.00 0.00 44 1018.0
20260906042006 23 243 0.0 1.6 0.00 0.00 0.00 45 1017.9
20260906041507 23 243 0.0 1.6 0.00 0.00 0.00 46 1017.8
20260906041007 23 243 0.0 1.6 0.00 0.00 0.00 46 1017.7
20260906040505 23 243 0.0 0.0 0.00 0.00 0.00 47 1017.7
20260906040005 23 243 0.0 1.6 0.00 0.00 0.00 46 1017.7
20260906035505 24 243 0.0 1.6 0.00 0.00 0.00 45 1017.6
20260906035006 24 243 0.0 1.6 0.00 0.00 0.00 45 1017.6
20260906034505 24 243 0.0 1.6 0.00 0.00 0.00 46 1017.6
20260906034009 24 243 0.0 1.6 0.00 0.00 0.00 46 1017.6
20260906033506 24 243 0.0 1.6 0.00 0.00 0.00 46 1017.6
20260906033006 24 243 0.0 1.6 0.00 0.00 0.00 46 1017.6
20260906032006 24 243 0.0 1.6 0.00 0.00 0.00 47 1017.6
20260906031506 24 243 0.0 1.6 0.00 0.00 0.00 47 1017.6
20260906031006 24 243 0.0 1.6 0.00 0.00 0.00 47 1017.5
20260906030506 24 243 0.0 1.6 0.00 0.00 0.00 47 1017.5
20260906030006 24 243 0.0 1.6 0.00 0.00 0.00 47 1017.5
20260906024505 24 243 0.0 3.2 0.00 0.00 0.00 48 1017.4
20260906023007 24 243 1.6 3.2 0.00 0.00 0.00 48 1017.5
20260906022505 25 243 1.6 3.2 0.00 0.00 0.00 48 1017.5
20260906022011 24 242 1.6 3.2 0.00 0.00 0.00 48 1017.5
20260906021507 24 242 0.0 1.6 0.00 0.00 0.00 48 1017.5
20260906020505 24 242 0.0 1.6 0.00 0.00 0.00 49 1017.4
20260906020006 24 242 0.0 3.2 0.00 0.00 0.00 49 1017.5
20260906015506 24 242 0.0 1.6 0.00 0.00 0.00 49 1017.5
20260906015006 25 242 0.0 1.6 0.00 0.00 0.00 49 1017.5
20260906014506 25 242 0.0 1.6 0.00 0.00 0.00 49 1017.5
20260906014006 25 242 0.0 1.6 0.00 0.00 0.00 48 1017.6
20260906013506 25 242 0.0 1.6 0.00 0.00 0.00 48 1017.6
20260906013006 25 242 0.0 1.6 0.00 0.00 0.00 49 1017.6
20260906012006 25 242 0.0 1.6 0.00 0.00 0.00 50 1017.5
20260906011007 25 242 0.0 1.6 0.00 0.00 0.00 50 1017.5
20260906010505 25 242 0.0 3.2 0.00 0.00 0.00 50 1017.5
20260906010007 25 242 0.0 1.6 0.00 0.00 0.00 51 1017.5
20260906005507 25 242 0.0 3.2 0.00 0.00 0.00 51 1017.5
20260906005007 25 241 1.6 3.2 0.00 0.00 0.00 52 1017.6
20260906004507 25 235 0.0 4.8 0.00 0.00 0.00 52 1017.6
20260906004005 25 249 1.6 4.8 0.00 0.00 0.00 52 1017.5
20260906003507 25 246 1.6 4.8 0.00 0.00 0.00 52 1017.5
20260906003006 25 247 0.0 3.2 0.00 0.00 0.00 53 1017.5
20260906002505 25 249 1.6 4.8 0.00 0.00 0.00 53 1017.5
20260906002005 25 237 0.0 3.2 0.00 0.00 0.00 53 1017.5
20260906001005 25 236 1.6 3.2 0.00 0.00 0.00 53 1017.6
20260906000505 25 235 1.6 4.8 0.00 0.00 0.00 53 1017.6
20260906000006 25 235 1.6 4.8 0.00 0.00 0.00 53 1017.6
20260905235507 25 234 0.0 3.2 0.00 0.00 0.00 52 1017.6
20260905235009 25 234 0.0 3.2 0.00 0.00 0.00 52 1017.7
20260905234011 26 234 0.0 3.2 0.00 0.00 0.00 51 1017.8
20260905233505 26 233 3.2 4.8 0.00 0.00 0.00 50 1017.8
20260905233006 26 241 0.0 3.2 0.00 0.00 0.00 49 1017.8
20260905232506 26 242 0.0 4.8 0.00 0.00 0.00 49 1017.8
20260905232006 26 261 1.6 4.8 0.00 0.00 0.00 49 1017.8
20260905231511 26 263 3.2 4.8 0.00 0.00 0.00 50 1017.8
20260905225505 25 200 0.0 1.6 0.00 0.00 0.00 51 1017.9
20260905225006 25 200 0.0 1.6 0.00 0.00 0.00 51 1017.9
20260905224506 25 200 0.0 1.6 0.00 0.00 0.00 51 1017.9
20260905224006 25 200 0.0 0.0 0.00 0.00 0.00 51 1017.9
20260905222006 26 201 0.0 4.8 0.00 0.00 0.00 51 1017.9
20260905221506 26 204 1.6 3.2 0.00 0.00 0.00 51 1017.8
20260905220506 26 204 1.6 3.2 0.00 0.00 0.00 49 1017.7
20260905220007 26 198 1.6 3.2 0.00 0.00 0.00 48 1017.7
20260905215506 26 199 1.6 4.8 0.00 0.00 0.00 47 1017.6
20260905215006 26 196 3.2 4.8 0.00 0.00 0.00 46 1017.6
20260905214505 26 202 1.6 4.8 0.00 0.00 0.00 45 1017.6
20260905214011 26 190 1.6 4.8 0.00 0.00 0.00 44 1017.6
20260905213506 26 195 3.2 8.0 0.00 0.00 0.00 43 1017.6
20260905213006 26 192 3.2 8.0 0.00 0.00 0.00 42 1017.7
20260905212506 26 200 3.2 4.8 0.00 0.00 0.00 40 1017.7
20260905212006 26 230 1.6 4.8 0.00 0.00 0.00 39 1017.8
20260905211006 26 191 3.2 4.8 0.00 0.00 0.00 36 1017.7
20260905210506 26 195 1.6 4.8 0.00 0.00 0.00 35 1017.7
20260905210006 26 197 3.2 8.0 0.00 0.00 0.00 35 1017.7
20260905205506 26 200 3.2 4.8 0.00 0.00 0.00 35 1017.7
20260905205007 27 205 4.8 9.7 0.00 0.00 0.00 35 1017.6
20260905204507 27 195 3.2 4.8 0.00 0.00 0.00 35 1017.6
20260905203506 27 197 4.8 8.0 0.00 0.00 0.00 35 1017.6
20260905203007 27 202 4.8 9.7 0.00 0.00 0.00 35 1017.7
20260905202017 26 204 4.8 9.7 0.00 0.00 0.00 37 1017.6
20260905200519 26 203 4.8 9.7 0.00 0.00 0.00 38 1017.7
20260905195513 26 202 4.8 9.7 0.00 0.00 0.00 39 1017.8
20260905195019 26 200 4.8 9.7 0.00 0.00 0.00 39 1017.8
20260905194521 26 207 4.8 11.3 0.00 0.00 0.00 40 1017.8
20260905193025 26 199 6.4 9.7 0.00 0.00 0.00 41 1017.7
20260905192021 26 207 4.8 9.7 0.00 0.00 0.00 40 1017.7
20260905191519 26 205 4.8 11.3 0.00 0.00 0.00 40 1017.7
20260905191020 27 206 4.8 11.3 0.00 0.00 0.00 40 1017.6
20260905190521 27 199 4.8 9.7 0.00 0.00 0.00 40 1017.6
20260905190021 27 198 4.8 8.0 0.00 0.00 0.00 40 1017.6
20260905185521 27 195 3.2 4.8 0.00 0.00 0.00 40 1017.6
20260905185020 27 207 3.2 8.0 0.00 0.00 0.00 39 1017.5
20260905184520 27 207 3.2 8.0 0.00 0.00 0.00 39 1017.5
20260905184014 27 211 3.2 8.0 0.00 0.00 0.00 39 1017.5
20260905183022 28 206 3.2 4.8 0.00 0.00 0.00 38 1017.5
20260905182522 28 204 3.2 4.8 0.00 0.00 0.00 38 1017.4
20260905182020 28 210 4.8 8.0 0.00 0.00 0.00 37 1017.4
20260905181519 28 203 3.2 9.7 0.00 0.00 0.00 37 1017.3
20260905181012 28 203 3.2 9.7 0.00 0.00 0.00 36 1017.2
20260905180021 28 203 3.2 4.8 0.00 0.00 0.00 35 1017.1
20260905175519 28 177 1.6 4.8 0.00 0.00 0.00 35 1017.1
20260905175020 29 190 3.2 4.8 0.00 0.00 0.00 34 1017.1
20260905174519 29 214 1.6 4.8 0.00 0.00 0.00 34 1017.0
20260905174020 30 190 1.6 4.8 0.00 0.00 0.00 33 1017.0
20260905173511 30 174 1.6 4.8 0.00 0.00 0.00 33 1016.9
20260905173020 30 201 1.6 4.8 0.00 0.00 0.00 32 1016.9
20260905172512 30 193 1.6 4.8 0.00 0.00 0.00 32 1016.9
20260905172021 30 188 3.2 4.8 0.00 0.00 0.00 31 1016.9
20260905171020 31 193 3.2 4.8 0.00 0.00 0.00 30 1016.9
20260905170519 31 180 4.8 11.3 0.00 0.00 0.00 29 1016.8
20260905170020 31 193 6.4 12.9 0.00 0.00 0.00 29 1016.7
20260905165519 32 190 6.4 19.3 0.00 0.00 0.00 28 1016.7
20260905164520 32 181 8.0 14.5 0.00 0.00 0.00 27 1016.6
20260905164019 33 178 4.8 9.7 0.00 0.00 0.00 26 1016.5
20260905163519 33 175 4.8 11.3 0.00 0.00 0.00 25 1016.5
20260905163021 33 180 4.8 14.5 0.00 0.00 0.00 25 1016.5
20260905162519 33 173 4.8 14.5 0.00 0.00 0.00 25 1016.4
20260905162019 33 177 3.2 8.0 0.00 0.00 0.00 28 1016.4
20260905161512 33 53 1.6 11.3 0.00 0.00 0.00 28 1016.5
20260905160519 33 38 3.2 9.7 0.00 0.00 0.00 28 1016.5
20260905160022 33 44 3.2 12.9 0.00 0.00 0.00 28 1016.5
20260905155517 33 52 6.4 19.3 0.00 0.00 0.00 27 1016.6
20260905155019 33 41 4.8 16.1 0.00 0.00 0.00 27 1016.6
20260905154519 34 50 8.0 16.1 0.00 0.00 0.00 26 1016.6
20260905153519 34 42 8.0 20.9 0.00 0.00 0.00 26 1016.6
20260905153021 34 36 4.8 14.5 0.00 0.00 0.00 26 1016.5
20260905152020 34 30 12.9 24.1 0.00 0.00 0.00 26 1016.4
20260905151019 34 43 14.5 27.4 0.00 0.00 0.00 26 1016.3
20260905150519 35 49 9.7 19.3 0.00 0.00 0.00 25 1016.3
20260905150018 35 50 9.7 19.3 0.00 0.00 0.00 25 1016.4
20260905145519 35 41 4.8 19.3 0.00 0.00 0.00 25 1016.3
20260905145020 35 36 8.0 14.5 0.00 0.00 0.00 25 1016.3
20260905144519 35 50 6.4 12.9 0.00 0.00 0.00 24 1016.4
20260905143518 35 45 9.7 16.1 0.00 0.00 0.00 24 1016.2
20260905143021 36 37 9.7 16.1 0.00 0.00 0.00 24 1016.2
20260905142510 36 47 9.7 16.1 0.00 0.00 0.00 24 1016.2
20260905142020 36 41 4.8 8.0 0.00 0.00 0.00 23 1016.4
20260905141519 37 44 3.2 4.8 0.00 0.00 0.00 21 1016.4
20260905140518 37 37 1.6 4.8 0.00 0.00 0.00 18 1016.3
20260905140020 37 175 3.2 9.7 0.00 0.00 0.00 18 1016.4
20260905134519 36 235 3.2 8.0 0.00 0.00 0.00 19 1016.5
20260905134020 37 236 1.6 9.7 0.00 0.00 0.00 19 1016.5
20260905133518 37 236 4.8 11.3 0.00 0.00 0.00 19 1016.6
20260905133020 37 174 3.2 9.7 0.00 0.00 0.00 19 1016.6
20260905132020 37 254 1.6 4.8 0.00 0.00 0.00 19 1016.7
20260905131519 36 33 3.2 8.0 0.00 0.00 0.00 19 1016.7
20260905130520 36 197 6.4 11.3 0.00 0.00 0.00 20 1016.8
20260905125518 36 238 1.6 4.8 0.00 0.00 0.00 19 1017.1
20260905124519 36 249 4.8 11.3 0.00 0.00 0.00 20 1017.2
20260905124021 36 233 9.7 14.5 0.00 0.00 0.00 20 1017.2
20260905123519 36 258 8.0 12.9 0.00 0.00 0.00 20 1017.3
20260905123021 36 241 3.2 8.0 0.00 0.00 0.00 20 1017.3
20260905122522 36 52 1.6 8.0 0.00 0.00 0.00 20 1017.3
20260905122019 36 45 1.6 8.0 0.00 0.00 0.00 20 1017.4
20260905120518 36 341 4.8 12.9 0.00 0.00 0.00 20 1017.5
20260905120020 36 247 3.2 9.7 0.00 0.00 0.00 20 1017.5
20260905115519 36 53 1.6 4.8 0.00 0.00 0.00 20 1017.5
20260905114520 36 213 4.8 11.3 0.00 0.00 0.00 21 1017.6
20260905114019 36 209 3.2 9.7 0.00 0.00 0.00 22 1017.7
20260905113518 36 222 3.2 11.3 0.00 0.00 0.00 21 1017.7
20260905113021 36 207 6.4 11.3 0.00 0.00 0.00 21 1017.7
20260905112513 36 83 4.8 11.3 0.00 0.00 0.00 22 1017.7
20260905112020 36 189 3.2 9.7 0.00 0.00 0.00 21 1017.8
20260905111518 36 154 3.2 8.0 0.00 0.00 0.00 21 1017.8
20260905111019 36 38 1.6 9.7 0.00 0.00 0.00 21 1017.8
20260905110518 37 225 0.0 3.2 0.00 0.00 0.00 21 1017.9
20260905110019 36 36 0.0 8.0 0.00 0.00 0.00 22 1017.9
20260905105518 36 59 3.2 8.0 0.00 0.00 0.00 22 1017.9
20260905104520 36 163 3.2 8.0 0.00 0.00 0.00 22 1017.9
20260905104020 36 88 1.6 8.0 0.00 0.00 0.00 22 1017.9
20260905103518 35 176 4.8 9.7 0.00 0.00 0.00 23 1017.9
20260905102518 35 6 1.6 4.8 0.00 0.00 0.00 23 1018.0
20260905102020 35 26 1.6 8.0 0.00 0.00 0.00 23 1018.1
20260905101519 35 354 1.6 9.7 0.00 0.00 0.00 23 1018.2
20260905101020 35 164 1.6 4.8 0.00 0.00 0.00 24 1018.2
20260905100021 35 222 3.2 8.0 0.00 0.00 0.00 23 1018.3
20260905095510 35 187 1.6 4.8 0.00 0.00 0.00 23 1018.4
20260905095020 35 49 3.2 4.8 0.00 0.00 0.00 24 1018.4
20260905094520 35 187 1.6 9.7 0.00 0.00 0.00 23 1018.5
20260905094020 34 219 1.6 8.0 0.00 0.00 0.00 24 1018.6
20260905093519 34 201 3.2 8.0 0.00 0.00 0.00 24 1018.6
20260905093021 35 216 4.8 8.0 0.00 0.00 0.00 23 1018.5
20260905092511 34 188 1.6 4.8 0.00 0.00 0.00 24 1018.5
20260905092012 34 163 1.6 9.7 0.00 0.00 0.00 24 1018.5
20260905091518 33 232 4.8 9.7 0.00 0.00 0.00 24 1018.6
20260905090511 33 189 1.6 4.8 0.00 0.00 0.00 25 1018.6
20260905090020 33 214 4.8 9.7 0.00 0.00 0.00 25 1018.6
20260905085518 33 242 0.0 4.8 0.00 0.00 0.00 25 1018.6
20260905085019 33 195 1.6 4.8 0.00 0.00 0.00 25 1018.6
20260905084517 33 250 1.6 4.8 0.00 0.00 0.00 25 1018.6
20260905084021 33 225 1.6 4.8 0.00 0.00 0.00 25 1018.6
20260905083518 32 156 3.2 8.0 0.00 0.00 0.00 26 1018.6
20260905083012 32 216 1.6 9.7 0.00 0.00 0.00 26 1018.6
20260905082019 32 114 3.2 4.8 0.00 0.00 0.00 26 1018.6
20260905081519 32 199 4.8 9.7 0.00 0.00 0.00 26 1018.6
20260905081019 32 217 1.6 4.8 0.00 0.00 0.00 27 1018.5
20260905080019 32 233 3.2 4.8 0.00 0.00 0.00 27 1018.5
20260905075511 32 229 3.2 4.8 0.00 0.00 0.00 28 1018.4
20260905075017 31 249 3.2 8.0 0.00 0.00 0.00 27 1018.3
20260905074020 31 228 4.8 8.0 0.00 0.00 0.00 28 1018.4
20260905073519 31 172 3.2 9.7 0.00 0.00 0.00 28 1018.4
20260905073021 31 239 1.6 4.8 0.00 0.00 0.00 28 1018.4
20260905072518 31 238 1.6 4.8 0.00 0.00 0.00 28 1018.4
20260905072020 31 212 1.6 4.8 0.00 0.00 0.00 29 1018.3
20260905071519 30 188 3.2 4.8 0.00 0.00 0.00 29 1018.3
20260905071019 30 224 1.6 4.8 0.00 0.00 0.00 30 1018.3
20260905070520 30 246 1.6 4.8 0.00 0.00 0.00 30 1018.2
20260905065516 29 244 1.6 4.8 0.00 0.00 0.00 32 1018.2
20260905065020 28 239 1.6 4.8 0.00 0.00 0.00 34 1018.2
20260905064518 28 237 0.0 3.2 0.00 0.00 0.00 36 1018.2
20260905064019 27 237 0.0 3.2 0.00 0.00 0.00 36 1018.1
20260905063513 27 237 0.0 3.2 0.00 0.00 0.00 39 1018.2
20260905063020 26 237 1.6 3.2 0.00 0.00 0.00 39 1018.1
20260905062520 26 237 0.0 1.6 0.00 0.00 0.00 40 1018.2
20260905062012 26 237 1.6 3.2 0.00 0.00 0.00 40 1018.2
20260905061519 25 237 0.0 1.6 0.00 0.00 0.00 41 1018.2
20260905061019 25 237 0.0 1.6 0.00 0.00 0.00 42 1018.2
20260905060518 25 237 0.0 1.6 0.00 0.00 0.00 44 1018.3
20260905055520 23 237 0.0 1.6 0.00 0.00 0.00 44 1018.3
20260905055019 23 237 1.6 1.6 0.00 0.00 0.00 44 1018.2
20260905054523 23 237 0.0 1.6 0.00 0.00 0.00 45 1018.2
20260905053513 22 237 0.0 1.6 0.00 0.00 0.00 45 1018.2
20260905053020 22 237 1.6 1.6 0.00 0.00 0.00 44 1018.2